sat.trackr.live / text

‹ back to catalog

STARLINK-34528

NORAD 64479 · 2025-133H

PAYLOAD ACTIVE UNKNOWN

§ Identity

Operator
Country
US
Launch date
2025-06-23
Launch site
AFETR
Launch vehicle
Mass (kg)
RCS (m²)

Purposes: comms

External: N2YO · Heavens-Above · Gunter

§ Orbital elements

Epoch: 2026-09-20T06:26:13.688736Z

Period
93.85 min
Inclination
53.1580°
Eccentricity
0.0001328
Mean motion
15.34401688 rev/d
Perigee alt
461.8 km
Apogee alt
463.6 km
Semi-major
6,840.8 km
B*
3.0753e-4
RAAN
287.0113°
Arg perigee
108.5461°
Mean anomaly
251.5686°
Rev number
7,104

§ Raw data

STARLINK-345281 64479U 25133H   26263.26821399  .00010029  00000+0  30753-3 0  99952 64479  53.1580 287.0113 0001328 108.5461 251.5686 15.34401688 71040

JSON: /api/v1/satellites/64479 · /tle

For live sub-satellite position, see the globe view (requires WebGL).

§ Visibility from observer

Set your observer location to see the next 7 days of passes ≥ 10°. The values pass through the URL so the page stays shareable.

No JS? Fill the form by hand. The geolocation button needs JavaScript.